Stations météo

réclame
Mon MeteoGroup
Muret-Lherm, France (7628): Température de l'air & dewpoint: 17.04.2018 03:00:00 - 23.04.2018 03:00:00 (CEST)Muret-Lherm, France (7628): Vitesse du vent & gusts: 17.04.2018 03:00:00 - 23.04.2018 03:00:00 (CEST)Muret-Lherm, France (7628): Direction du vent: 17.04.2018 03:00:00 - 23.04.2018 03:00:00 (CEST)Muret-Lherm, France (7628): reduced air pressure: 17.04.2018 03:00:00 - 23.04.2018 03:00:00 (CEST)Muret-Lherm, France (7628): visibility: 17.04.2018 03:00:00 - 23.04.2018 03:00:00 (CEST)Muret-Lherm, France (7628): Quantités de précipitations: 17.04.2018 03:00:00 - 23.04.2018 03:00:00 (CEST)
Date & Time tt [°C] td [°C] ff [km/h] ff [knt] fx [km/h] fx [knt] dd ppp [hPa] vv [km] rr [mm]
23.04.2018 03:00:00 12,3 10,4 0 0 5 3 N 1018,4 20 0,0
23.04.2018 02:00:00 14,2 11,5 2 1 9 5 ENE 1018,4 20 -
23.04.2018 01:00:00 15,4 11,0 5 3 8 4 S 1018,5 20 0,0
23.04.2018 00:00:00 17,1 9,8 5 3 18 10 SSW 1018,1 20 0,0
22.04.2018 23:00:00 17,7 9,3 11 6 18 10 SE 1017,2 20 0,0
22.04.2018 22:00:00 18,7 9,2 15 8 18 10 SE 1016,6 20 0,0
22.04.2018 21:00:00 19,8 10,8 13 7 18 10 ESE 1015,7 20 0,0
22.04.2018 20:00:00 22,0 12,8 9 5 15 8 E 1014,8 20 -
22.04.2018 19:00:00 24,1 13,6 4 2 9 5 NE 1014,6 20 0,0
22.04.2018 18:00:00 24,4 15,3 5 3 16 9 ESE 1014,2 20 0,0
22.04.2018 17:00:00 24,5 13,7 11 6 21 11 SE 1014,3 20 0,0
22.04.2018 16:00:00 24,7 14,5 8 4 18 10 E 1014,7 18 0,0
22.04.2018 15:00:00 23,9 13,4 4 2 11 6 NNE 1015,4 19 0,0
22.04.2018 14:00:00 23,4 14,4 4 2 11 6 NNW 1016,0 20 -
22.04.2018 13:00:00 21,9 12,7 4 2 18 10 E 1016,4 17 0,0
22.04.2018 12:00:00 20,6 12,8 8 4 15 8 ESE 1016,6 19 0,0
22.04.2018 11:00:00 19,4 13,3 4 2 9 5 ESE 1017,1 18 0,0
22.04.2018 10:00:00 14,6 11,7 0 0 5 3 N 1017,4 16 0,0
22.04.2018 09:00:00 12,9 11,6 0 0 5 3 N 1017,3 20 0,0
22.04.2018 08:00:00 11,6 11,0 4 2 8 4 S 1017,0 20 -
22.04.2018 07:00:00 10,9 9,8 5 3 9 5 S 1016,7 20 0,0
22.04.2018 06:00:00 11,0 9,6 0 0 8 4 N 1016,3 20 0,0
22.04.2018 05:00:00 11,4 9,5 4 2 8 4 WNW 1016,4 20 0,0
22.04.2018 04:00:00 12,4 9,0 4 2 11 6 S 1016,2 20 0,0
22.04.2018 03:00:00 13,7 9,1 2 1 16 9 SSW 1016,2 20 0,0
22.04.2018 02:00:00 16,0 8,7 8 4 15 8 SE 1016,3 20 -
22.04.2018 01:00:00 15,8 8,8 5 3 13 7 S 1016,4 20 0,0
22.04.2018 00:00:00 15,6 8,3 4 2 16 9 S 1016,7 20 0,0
21.04.2018 23:00:00 17,1 8,5 5 3 18 10 SE 1016,8 20 0,0
21.04.2018 22:00:00 18,1 8,6 8 4 16 9 ESE 1016,8 20 0,0
21.04.2018 21:00:00 19,8 9,1 9 5 28 15 SE 1016,3 20 0,0
21.04.2018 20:00:00 22,1 9,3 16 9 26 14 ESE 1015,7 20 -
21.04.2018 19:00:00 24,1 10,4 16 9 26 14 ESE 1015,7 20 0,0
21.04.2018 18:00:00 25,3 11,1 16 9 28 15 ESE 1015,7 20 0,0
21.04.2018 17:00:00 25,7 11,8 16 9 28 15 SE 1015,6 20 0,0
21.04.2018 16:00:00 25,5 12,0 15 8 24 13 E 1016,4 20 0,0
21.04.2018 15:00:00 24,8 12,7 13 7 21 11 E 1016,9 20 0,0
21.04.2018 14:00:00 24,3 12,6 5 3 18 10 ESE 1017,5 20 -
21.04.2018 13:00:00 23,2 12,5 8 4 16 9 ESE 1018,3 20 0,0
21.04.2018 12:00:00 21,9 13,5 5 3 13 7 SSE 1018,9 20 0,0
21.04.2018 11:00:00 19,4 11,4 8 4 13 7 SE 1019,3 19 0,0
21.04.2018 10:00:00 16,3 11,2 5 3 9 5 S 1019,5 20 0,0
21.04.2018 09:00:00 13,6 10,6 0 0 2 1 N 1019,9 20 0,0
21.04.2018 08:00:00 9,5 9,2 0 0 9 5 N 1020,1 16 -
21.04.2018 07:00:00 8,9 8,3 5 3 8 4 SSW 1019,8 16 0,0
21.04.2018 06:00:00 8,8 7,9 8 4 9 5 SSW 1019,9 13 0,0
21.04.2018 05:00:00 9,4 7,3 5 3 9 5 S 1020,0 20 0,0
21.04.2018 04:00:00 10,8 7,8 0 0 8 4 N 1020,2 20 0,0
21.04.2018 03:00:00 13,3 8,1 5 3 8 4 NNE 1020,3 20 0,0
21.04.2018 02:00:00 13,0 8,5 0 0 16 9 N 1020,5 20 -
21.04.2018 01:00:00 15,2 8,9 11 6 21 11 E 1020,3 20 0,0
21.04.2018 00:00:00 15,8 9,5 11 6 16 9 E 1020,4 20 0,0
20.04.2018 23:00:00 16,6 9,0 5 3 24 13 E 1020,7 20 0,0
20.04.2018 22:00:00 18,1 9,4 13 7 22 12 E 1020,1 20 0,0
20.04.2018 21:00:00 18,9 9,4 9 5 22 12 E 1019,8 20 0,0
20.04.2018 20:00:00 21,4 9,0 16 9 39 21 ESE 1019,2 20 -
20.04.2018 19:00:00 23,0 9,7 22 12 42 23 E 1019,1 20 0,0
20.04.2018 18:00:00 23,9 9,8 22 12 41 22 E 1019,1 20 0,0
20.04.2018 17:00:00 24,4 10,7 26 14 41 22 E 1019,3 20 0,0
20.04.2018 16:00:00 24,7 11,3 21 11 37 20 E 1020,0 20 0,0
20.04.2018 15:00:00 24,2 11,2 21 11 34 18 ESE 1020,6 19 0,0
20.04.2018 14:00:00 23,6 11,0 18 10 29 16 ESE 1021,1 20 -
20.04.2018 13:00:00 22,6 11,6 18 10 29 16 SE 1021,7 18 0,0
20.04.2018 12:00:00 21,5 10,9 16 9 29 16 SE 1022,1 20 0,0
20.04.2018 11:00:00 19,7 9,6 16 9 26 14 ESE 1022,1 20 0,0
20.04.2018 10:00:00 17,2 8,3 16 9 26 14 ESE 1022,3 20 0,0
20.04.2018 09:00:00 14,6 8,3 9 5 16 9 E 1022,3 20 0,0
20.04.2018 08:00:00 12,8 6,8 9 5 15 8 E 1022,4 20 -
20.04.2018 07:00:00 10,2 6,0 0 0 9 5 N 1022,4 20 0,0
20.04.2018 06:00:00 13,6 6,2 5 3 13 7 SE 1021,8 20 0,0
20.04.2018 05:00:00 14,4 6,5 5 3 16 9 SE 1021,9 20 0,0
20.04.2018 04:00:00 14,0 6,1 5 3 13 7 S 1021,9 20 0,0
20.04.2018 03:00:00 14,7 6,3 4 2 11 6 NNE 1022,1 20 0,0
20.04.2018 02:00:00 15,9 6,3 4 2 37 20 SW 1022,4 20 -
20.04.2018 01:00:00 16,0 7,0 15 8 31 17 ESE 1022,2 20 0,0
20.04.2018 00:00:00 13,9 7,4 4 2 18 10 NNW 1022,5 20 0,0
19.04.2018 23:00:00 15,4 8,2 2 1 18 10 NE 1022,4 20 -
19.04.2018 22:00:00 17,1 8,8 9 5 18 10 ENE 1022,4 20 0,0
19.04.2018 21:00:00 18,9 8,2 5 3 31 17 NE 1021,9 20 0,0
19.04.2018 20:00:00 21,0 8,6 22 12 42 23 E 1021,3 20 -
19.04.2018 19:00:00 22,5 8,6 26 14 48 26 ESE 1021,3 20 0,0
19.04.2018 18:00:00 23,3 9,7 24 13 52 28 ESE 1021,3 20 0,0
19.04.2018 17:00:00 23,7 10,0 31 17 52 28 ESE 1021,1 20 0,0
19.04.2018 16:00:00 24,0 11,3 31 17 50 27 E 1021,5 20 0,0
19.04.2018 15:00:00 24,1 12,1 28 15 52 28 E 1022,1 20 0,0
19.04.2018 14:00:00 23,1 12,1 34 18 48 26 ESE 1022,6 20 -
19.04.2018 13:00:00 22,5 11,6 31 17 46 25 ESE 1023,0 20 0,0
19.04.2018 12:00:00 21,4 11,1 26 14 48 26 ESE 1023,5 20 0,0
19.04.2018 11:00:00 20,0 11,7 18 10 34 18 E 1023,8 19 -
19.04.2018 10:00:00 18,1 10,9 15 8 35 19 ESE 1024,0 20 0,0
19.04.2018 09:00:00 16,3 9,9 11 6 28 15 ESE 1023,9 20 0,0
19.04.2018 08:00:00 14,3 8,9 9 5 13 7 ESE 1023,8 20 -
19.04.2018 07:00:00 13,9 8,1 11 6 16 9 SE 1023,3 20 0,0
19.04.2018 06:00:00 12,9 7,3 5 3 18 10 WNW 1023,3 20 0,0
19.04.2018 05:00:00 15,5 7,3 11 6 18 10 SSE 1023,1 20 0,0
19.04.2018 04:00:00 15,7 7,2 11 6 24 13 SSE 1023,3 20 0,0
19.04.2018 03:00:00 14,8 7,6 11 6 18 10 S 1023,4 20 0,0
19.04.2018 02:00:00 14,8 7,6 9 5 16 9 S 1023,7 20 -
19.04.2018 01:00:00 15,0 7,8 5 3 21 11 ESE 1023,6 20 0,0
19.04.2018 00:00:00 16,0 8,0 11 6 24 13 E 1023,5 20 0,0
18.04.2018 23:00:00 16,9 8,6 13 7 26 14 E 1023,3 20 0,0
18.04.2018 22:00:00 18,2 8,5 15 8 34 18 ESE 1023,2 20 0,0
18.04.2018 21:00:00 19,3 8,9 13 7 35 19 ESE 1022,6 20 0,0
18.04.2018 20:00:00 20,9 10,1 18 10 46 25 ESE 1022,2 20 -
18.04.2018 19:00:00 22,5 11,2 26 14 44 24 E 1021,8 20 0,0
18.04.2018 18:00:00 24,0 12,0 24 13 37 20 ESE 1021,6 20 0,0
18.04.2018 17:00:00 25,1 13,3 22 12 35 19 ESE 1021,4 20 0,0
18.04.2018 16:00:00 24,9 13,1 24 13 35 19 E 1021,5 20 0,0
18.04.2018 15:00:00 24,7 13,9 18 10 37 20 E 1022,0 20 0,0
18.04.2018 14:00:00 23,7 12,7 22 12 37 20 E 1022,3 20 -
18.04.2018 13:00:00 23,1 11,8 22 12 42 23 E 1023,1 20 0,0
18.04.2018 12:00:00 22,0 10,8 28 15 46 25 ESE 1023,6 20 0,0
18.04.2018 11:00:00 19,1 11,6 11 6 16 9 E 1024,0 20 0,0
18.04.2018 10:00:00 15,0 10,8 4 2 8 4 NNE 1024,4 20 0,0
18.04.2018 09:00:00 10,2 9,3 0 0 4 2 N 1024,9 20 0,0
18.04.2018 08:00:00 7,4 7,3 0 0 4 2 N 1025,0 19 -
18.04.2018 07:00:00 6,4 6,0 4 2 5 3 W 1024,8 19 0,0
18.04.2018 06:00:00 7,0 6,4 2 1 5 3 ESE 1024,5 20 0,0
18.04.2018 05:00:00 7,8 7,2 4 2 8 4 SSE 1024,6 20 0,0
18.04.2018 04:00:00 8,6 7,8 5 3 8 4 S 1024,7 20 0,0
18.04.2018 03:00:00 9,2 8,0 5 3 9 5 S 1025,0 20 0,0
18.04.2018 02:00:00 10,1 8,9 8 4 11 6 SSW 1025,3 20 -
18.04.2018 01:00:00 10,0 8,6 8 4 9 5 S 1025,4 20 0,0
18.04.2018 00:00:00 11,0 9,3 5 3 5 3 SW 1025,1 20 0,0
17.04.2018 23:00:00 12,3 10,0 4 2 8 4 SW 1024,9 15 0,0
17.04.2018 22:00:00 13,3 10,1 8 4 9 5 SW 1024,3 20 0,0
17.04.2018 21:00:00 16,9 11,4 4 2 8 4 NW 1023,3 20 0,0
17.04.2018 20:00:00 20,5 10,0 5 3 15 8 N 1022,5 20 -
17.04.2018 19:00:00 22,2 8,7 11 6 16 9 NNE 1022,3 20 0,0
17.04.2018 18:00:00 23,3 9,7 8 4 13 7 N 1022,0 20 0,0
17.04.2018 17:00:00 22,9 8,9 5 3 15 8 NNE 1021,9 20 0,0
17.04.2018 16:00:00 22,6 8,7 8 4 16 9 ENE 1022,1 19 0,0
17.04.2018 15:00:00 21,6 9,8 9 5 18 10 ENE 1022,7 20 0,0
17.04.2018 14:00:00 20,3 9,8 5 3 15 8 NE 1023,1 20 -
17.04.2018 13:00:00 18,7 10,5 5 3 13 7 NNE 1023,6 19 0,0
17.04.2018 12:00:00 17,3 11,1 4 2 11 6 ENE 1024,1 20 0,0
17.04.2018 11:00:00 15,6 10,6 2 1 5 3 NE 1024,3 20 0,0
17.04.2018 10:00:00 11,4 9,5 4 2 9 5 WSW 1024,4 20 0,0
17.04.2018 09:00:00 8,4 8,1 8 4 11 6 S 1024,4 20 0,0
17.04.2018 08:00:00 5,9 5,9 4 2 11 6 S 1024,0 15 -
17.04.2018 07:00:00 5,0 4,9 8 4 11 6 S 1023,5 11 0,0
17.04.2018 06:00:00 5,3 5,2 8 4 11 6 S 1022,9 8 0,2
17.04.2018 05:00:00 5,9 5,8 9 5 11 6 S 1022,8 13 -
17.04.2018 04:00:00 6,2 6,1 8 4 11 6 S 1022,6 11 0,0
17.04.2018 03:00:00 6,6 6,5 8 4 11 6 SSW 1022,7 13 0,0

tt = Température de l'air
td = dewpoint
ff = Vitesse du vent
fx = gusts
dd = Direction du vent
ppp = reduced air pressure
vv = visibility
rr = Quantités de précipitations

stations d'obs. à proximité